[{"OBJECT_NAME":"IRIDIUM 33 DEB","OBJECT_ID":"1997-051YJ","EPOCH":"2026-09-07T18:07:29.347392","MEAN_MOTION":14.42994717,"ECCENTRICITY":0.00415338,"INCLINATION":86.2621,"RA_OF_ASC_NODE":258.4133,"ARG_OF_PERICENTER":238.7118,"MEAN_ANOMALY":121.0013,"EPHEMERIS_TYPE":0,"CLASSIFICATION_TYPE":"U","NORAD_CAT_ID":38022,"ELEMENT_SET_NO":999,"REV_AT_EPOCH":73071,"BSTAR":0.00048598531,"MEAN_MOTION_DOT":0.00001663,"MEAN_MOTION_DDOT":0},{"OBJECT_NAME":"IRIDIUM 33 DEB","OBJECT_ID":"1997-051YQ","EPOCH":"2026-09-11T05:16:10.035840","MEAN_MOTION":14.46868659,"ECCENTRICITY":0.00255837,"INCLINATION":86.3213,"RA_OF_ASC_NODE":241.7225,"ARG_OF_PERICENTER":300.5028,"MEAN_ANOMALY":59.3649,"EPHEMERIS_TYPE":0,"CLASSIFICATION_TYPE":"U","NORAD_CAT_ID":38028,"ELEMENT_SET_NO":999,"REV_AT_EPOCH":69434,"BSTAR":0.0001570619,"MEAN_MOTION_DOT":0.00000592,"MEAN_MOTION_DDOT":0},{"OBJECT_NAME":"IRIDIUM 33 DEB","OBJECT_ID":"1997-051ZC","EPOCH":"2026-09-11T10:47:31.374816","MEAN_MOTION":14.2768221,"ECCENTRICITY":0.00647302,"INCLINATION":86.2909,"RA_OF_ASC_NODE":292.5076,"ARG_OF_PERICENTER":34.3483,"MEAN_ANOMALY":31.5718,"EPHEMERIS_TYPE":0,"CLASSIFICATION_TYPE":"U","NORAD_CAT_ID":38228,"ELEMENT_SET_NO":999,"REV_AT_EPOCH":88672,"BSTAR":0.00013553551,"MEAN_MOTION_DOT":0.00000361,"MEAN_MOTION_DDOT":0},{"OBJECT_NAME":"IRIDIUM 33 DEB","OBJECT_ID":"1997-051ZR","EPOCH":"2026-09-12T05:10:21.245088","MEAN_MOTION":14.56352725,"ECCENTRICITY":0.0002655,"INCLINATION":86.3201,"RA_OF_ASC_NODE":229.7542,"ARG_OF_PERICENTER":152.2014,"MEAN_ANOMALY":207.9336,"EPHEMERIS_TYPE":0,"CLASSIFICATION_TYPE":"U","NORAD_CAT_ID":38241,"ELEMENT_SET_NO":999,"REV_AT_EPOCH":64179,"BSTAR":0.00038071,"MEAN_MOTION_DOT":0.00001708,"MEAN_MOTION_DDOT":0},{"OBJECT_NAME":"IRIDIUM 33 DEB","OBJECT_ID":"1997-051AAB","EPOCH":"2026-09-05T07:12:53.645760","MEAN_MOTION":14.51761042,"ECCENTRICITY":0.00225102,"INCLINATION":86.3372,"RA_OF_ASC_NODE":253.766,"ARG_OF_PERICENTER":274.0815,"MEAN_ANOMALY":85.7817,"EPHEMERIS_TYPE":0,"CLASSIFICATION_TYPE":"U","NORAD_CAT_ID":38474,"ELEMENT_SET_NO":999,"REV_AT_EPOCH":69184,"BSTAR":0.00021426651,"MEAN_MOTION_DOT":0.00000884,"MEAN_MOTION_DDOT":0},{"OBJECT_NAME":"IRIDIUM 33 DEB","OBJECT_ID":"1997-051AAE","EPOCH":"2026-09-11T18:07:24.566016","MEAN_MOTION":13.6259912,"ECCENTRICITY":0.03979968,"INCLINATION":86.4087,"RA_OF_ASC_NODE":4.4541,"ARG_OF_PERICENTER":164.7636,"MEAN_ANOMALY":196.5931,"EPHEMERIS_TYPE":0,"CLASSIFICATION_TYPE":"U","NORAD_CAT_ID":38477,"ELEMENT_SET_NO":999,"REV_AT_EPOCH":58393,"BSTAR":0.0039213631,"MEAN_MOTION_DOT":0.00005217,"MEAN_MOTION_DDOT":0},{"OBJECT_NAME":"IRIDIUM 33 DEB","OBJECT_ID":"1997-051AAJ","EPOCH":"2026-09-07T20:28:02.269920","MEAN_MOTION":14.62084806,"ECCENTRICITY":0.00555895,"INCLINATION":85.9567,"RA_OF_ASC_NODE":43.63,"ARG_OF_PERICENTER":355.5335,"MEAN_ANOMALY":4.5371,"EPHEMERIS_TYPE":0,"CLASSIFICATION_TYPE":"U","NORAD_CAT_ID":39777,"ELEMENT_SET_NO":999,"REV_AT_EPOCH":64111,"BSTAR":0.00089436908,"MEAN_MOTION_DOT":0.00004614,"MEAN_MOTION_DDOT":0},{"OBJECT_NAME":"IRIDIUM 33 DEB","OBJECT_ID":"1997-051AAK","EPOCH":"2026-09-11T12:40:54.020928","MEAN_MOTION":14.56125834,"ECCENTRICITY":0.00075061,"INCLINATION":86.3721,"RA_OF_ASC_NODE":284.6099,"ARG_OF_PERICENTER":166.6157,"MEAN_ANOMALY":193.5252,"EPHEMERIS_TYPE":0,"CLASSIFICATION_TYPE":"U","NORAD_CAT_ID":39778,"ELEMENT_SET_NO":999,"REV_AT_EPOCH":64660,"BSTAR":0.00040808468,"MEAN_MOTION_DOT":0.00001821,"MEAN_MOTION_DDOT":0},{"OBJECT_NAME":"IRIDIUM 33 DEB","OBJECT_ID":"1997-051AAN","EPOCH":"2026-09-10T11:11:01.142016","MEAN_MOTION":14.26007868,"ECCENTRICITY":0.0166009,"INCLINATION":86.3806,"RA_OF_ASC_NODE":145.6195,"ARG_OF_PERICENTER":121.6334,"MEAN_ANOMALY":51.7841,"EPHEMERIS_TYPE":0,"CLASSIFICATION_TYPE":"U","NORAD_CAT_ID":39781,"ELEMENT_SET_NO":999,"REV_AT_EPOCH":11973,"BSTAR":0.0010755,"MEAN_MOTION_DOT":0.00002988,"MEAN_MOTION_DDOT":0},{"OBJECT_NAME":"IRIDIUM 33 DEB","OBJECT_ID":"1997-051ABJ","EPOCH":"2026-09-07T17:04:36.225696","MEAN_MOTION":15.19177188,"ECCENTRICITY":0.00099054,"INCLINATION":86.3437,"RA_OF_ASC_NODE":233.2818,"ARG_OF_PERICENTER":108.7866,"MEAN_ANOMALY":251.4452,"EPHEMERIS_TYPE":0,"CLASSIFICATION_TYPE":"U","NORAD_CAT_ID":40996,"ELEMENT_SET_NO":999,"REV_AT_EPOCH":66542,"BSTAR":0.0026352372,"MEAN_MOTION_DOT":0.00055838,"MEAN_MOTION_DDOT":0},{"OBJECT_NAME":"IRIDIUM 33 DEB","OBJECT_ID":"1997-051ABL","EPOCH":"2026-09-10T09:29:57.956352","MEAN_MOTION":14.45923915,"ECCENTRICITY":0.0005233,"INCLINATION":86.3804,"RA_OF_ASC_NODE":297.5529,"ARG_OF_PERICENTER":247.7973,"MEAN_ANOMALY":124.9574,"EPHEMERIS_TYPE":0,"CLASSIFICATION_TYPE":"U","NORAD_CAT_ID":40998,"ELEMENT_SET_NO":999,"REV_AT_EPOCH":10606,"BSTAR":0.0002258,"MEAN_MOTION_DOT":0.00000823,"MEAN_MOTION_DDOT":0},{"OBJECT_NAME":"IRIDIUM 33 DEB","OBJECT_ID":"1997-051ABN","EPOCH":"2026-09-11T06:25:56.152992","MEAN_MOTION":14.40414166,"ECCENTRICITY":0.02022366,"INCLINATION":86.2719,"RA_OF_ASC_NODE":75.5009,"ARG_OF_PERICENTER":100.0801,"MEAN_ANOMALY":23.1832,"EPHEMERIS_TYPE":0,"CLASSIFICATION_TYPE":"U","NORAD_CAT_ID":46435,"ELEMENT_SET_NO":999,"REV_AT_EPOCH":11832,"BSTAR":0.0023602009,"MEAN_MOTION_DOT":0.00009581,"MEAN_MOTION_DDOT":0},{"OBJECT_NAME":"IRIDIUM 33 DEB","OBJECT_ID":"1997-051ABR","EPOCH":"2026-09-06T06:35:11.177952","MEAN_MOTION":14.43393979,"ECCENTRICITY":0.00393656,"INCLINATION":86.2584,"RA_OF_ASC_NODE":245.2183,"ARG_OF_PERICENTER":164.2144,"MEAN_ANOMALY":252.2692,"EPHEMERIS_TYPE":0,"CLASSIFICATION_TYPE":"U","NORAD_CAT_ID":46734,"ELEMENT_SET_NO":999,"REV_AT_EPOCH":66868,"BSTAR":0.00040057068,"MEAN_MOTION_DOT":0.00001384,"MEAN_MOTION_DDOT":0},{"OBJECT_NAME":"IRIDIUM 33 DEB","OBJECT_ID":"1997-051ABX","EPOCH":"2026-09-11T08:55:13.719648","MEAN_MOTION":14.61951395,"ECCENTRICITY":0.00212265,"INCLINATION":86.3348,"RA_OF_ASC_NODE":219.5743,"ARG_OF_PERICENTER":113.2499,"MEAN_ANOMALY":38.4241,"EPHEMERIS_TYPE":0,"CLASSIFICATION_TYPE":"U","NORAD_CAT_ID":46965,"ELEMENT_SET_NO":999,"REV_AT_EPOCH":66249,"BSTAR":0.00039851147,"MEAN_MOTION_DOT":0.00002024,"MEAN_MOTION_DDOT":0},{"OBJECT_NAME":"IRIDIUM 33 DEB","OBJECT_ID":"1997-051ACD","EPOCH":"2026-09-08T03:01:58.528704","MEAN_MOTION":15.17437417,"ECCENTRICITY":0.00101696,"INCLINATION":86.3112,"RA_OF_ASC_NODE":203.99,"ARG_OF_PERICENTER":69.6972,"MEAN_ANOMALY":302.2384,"EPHEMERIS_TYPE":0,"CLASSIFICATION_TYPE":"U","NORAD_CAT_ID":46971,"ELEMENT_SET_NO":999,"REV_AT_EPOCH":68289,"BSTAR":0.0029133468,"MEAN_MOTION_DOT":0.00058748,"MEAN_MOTION_DDOT":0},{"OBJECT_NAME":"IRIDIUM 33 DEB","OBJECT_ID":"1997-051ACE","EPOCH":"2026-09-11T09:26:18.057120","MEAN_MOTION":14.51702021,"ECCENTRICITY":0.00065554,"INCLINATION":86.3818,"RA_OF_ASC_NODE":281.9314,"ARG_OF_PERICENTER":273.2169,"MEAN_ANOMALY":153.9862,"EPHEMERIS_TYPE":0,"CLASSIFICATION_TYPE":"U","NORAD_CAT_ID":46972,"ELEMENT_SET_NO":999,"REV_AT_EPOCH":65527,"BSTAR":0.00024156413,"MEAN_MOTION_DOT":0.0000099,"MEAN_MOTION_DDOT":0},{"OBJECT_NAME":"IRIDIUM 33 DEB","OBJECT_ID":"1997-051ACG","EPOCH":"2026-09-12T00:29:33.709920","MEAN_MOTION":14.49503615,"ECCENTRICITY":0.0083887,"INCLINATION":86.3018,"RA_OF_ASC_NODE":345.3954,"ARG_OF_PERICENTER":358.4793,"MEAN_ANOMALY":1.6142,"EPHEMERIS_TYPE":0,"CLASSIFICATION_TYPE":"U","NORAD_CAT_ID":46974,"ELEMENT_SET_NO":999,"REV_AT_EPOCH":61461,"BSTAR":0.0011326,"MEAN_MOTION_DOT":0.0000456,"MEAN_MOTION_DDOT":0},{"OBJECT_NAME":"IRIDIUM 33 DEB","OBJECT_ID":"1997-051ACM","EPOCH":"2026-09-05T19:29:33.940896","MEAN_MOTION":15.23765769,"ECCENTRICITY":0.0007714,"INCLINATION":86.3134,"RA_OF_ASC_NODE":281.1039,"ARG_OF_PERICENTER":340.3269,"MEAN_ANOMALY":19.7677,"EPHEMERIS_TYPE":0,"CLASSIFICATION_TYPE":"U","NORAD_CAT_ID":46979,"ELEMENT_SET_NO":999,"REV_AT_EPOCH":39446,"BSTAR":0.0023678,"MEAN_MOTION_DOT":0.00057352,"MEAN_MOTION_DDOT":0}]